Weather History for Middlesboro, KY

Change the Weather History Date:

Saturday, September 7, 2013

  Actual Average (KLOZ) Record (KLOZ)
Temperature  
Mean Temperature 72 °F 72 °F  
Max Temperature 84 °F 83 °F 93 °F (1990)
Min Temperature 60 °F 60 °F 45 °F (1988)
Degree Days  
Heating Degree Days 0 0  
Month to date heating degree days 0  
Since 1 July heating degree days 1  
Cooling Degree Days 7 7  
Month to date cooling degree days 53  
Growing Degree Days 22 (Base 50)    
Moisture  
Dew Point 64 °F    
Average Humidity 83    
Maximum Humidity 100    
Minimum Humidity 48    
Precipitation  
Precipitation 0.00 in 0.10 in 1.13 in (2004)
Month to date precipitation 0.74  
Sea Level Pressure  
Sea Level Pressure 30.11 in    
Wind  
Wind Speed 1 mph (West)    
Max Wind Speed 6 mph    
Max Gust Speed -    
Visibility 7 miles    
Events Fog    
T = Trace of Precipitation, MM = Missing Value Source: NWS Daily Summary

Daily Weather History Graph

Daily Weather History Graph

Search for Another Location

Airport:

Trip Planner

Search our weather history database for the weather conditions in past years. The results will help you decide how hot, cold, wet, or windy it might be!

Date:

Astronomy

Sep. 07, 2013 Rise Set
Actual Time 6:11 AM CDT 6:53 PM CDT
Civil Twilight 5:44 AM CDT 7:20 PM CDT
Nautical Twilight 5:14 AM CDT 7:50 PM CDT
Astronomical Twilight 4:42 AM CDT 8:22 PM CDT
Moon 8:19 AM CDT (9/7) 7:57 PM CDT (9/7)
Length of Visible Light 13h 35m
Length of Day
12h 42m
Waxing Crescent, 5% of the Moon is Illuminated
Sep 7
Waxing Crescent
Sep 12
First Quarter
Sep 19
Full
Sep 26
Last Quarter
Oct 4
New

Hourly Weather History & Observations

Time (CDT) Temp. Heat Index Dew Point Humidity Pressure Visibility Wind Dir Wind Speed Gust Speed Precip Events Conditions
12:15 AM 62.1 °F - 61.7 °F 99% 30.15 in 10.0 mi Calm Calm - N/A   Clear
12:35 AM 62.2 °F - 61.7 °F 98% 30.15 in 7.0 mi Calm Calm - N/A   Clear
12:55 AM 62.1 °F - 61.3 °F 97% 30.15 in 10.0 mi Calm Calm - N/A   Clear
1:15 AM 61.7 °F - 61.7 °F 100% 30.15 in 0.8 mi Calm Calm - N/A   Overcast
1:35 AM 61.7 °F - 61.7 °F 100% 30.15 in 0.2 mi Calm Calm - N/A Fog Fog
1:55 AM 61.9 °F - 61.9 °F 100% 30.14 in 0.2 mi Calm Calm - N/A Fog Fog
2:15 AM 61.9 °F - 61.9 °F 100% 30.14 in 0.2 mi Calm Calm - N/A Fog Fog
2:35 AM 61.7 °F - 61.7 °F 100% 30.14 in 1.2 mi Calm Calm - N/A   Overcast
2:55 AM 61.7 °F - 61.7 °F 100% 30.14 in 1.0 mi Calm Calm - N/A   Overcast
3:15 AM 61.2 °F - 61.2 °F 100% 30.14 in 0.8 mi Calm Calm - N/A   Overcast
3:35 AM 61.2 °F - 61.2 °F 100% 30.14 in 1.2 mi Calm Calm - N/A   Overcast
3:55 AM 61.2 °F - 61.2 °F 100% 30.14 in 0.2 mi Calm Calm - N/A Fog Fog
4:15 AM 61.2 °F - 61.2 °F 100% 30.14 in 0.8 mi Calm Calm - N/A   Overcast
4:35 AM 61.0 °F - 61.0 °F 100% 30.14 in 4.0 mi Calm Calm - N/A   Overcast
4:55 AM 61.2 °F - 61.2 °F 100% 30.14 in 3.0 mi Calm Calm - N/A   Overcast
5:15 AM 61.2 °F - 61.2 °F 100% 30.14 in 3.0 mi Calm Calm - N/A   Overcast
5:35 AM 61.2 °F - 61.2 °F 100% 30.15 in 2.0 mi Calm Calm - N/A   Overcast
5:55 AM 60.8 °F - 60.8 °F 100% 30.15 in 2.5 mi Calm Calm - N/A   Overcast
6:15 AM 61.0 °F - 61.0 °F 100% 30.16 in 2.0 mi Calm Calm - N/A   Overcast
6:35 AM 61.0 °F - 61.0 °F 100% 30.16 in 1.5 mi Calm Calm - N/A   Overcast
6:55 AM 61.0 °F - 61.0 °F 100% 30.16 in 1.2 mi Calm Calm - N/A   Overcast
7:15 AM 61.2 °F - 61.2 °F 100% 30.16 in 1.0 mi Calm Calm - N/A   Overcast
7:35 AM 61.2 °F - 61.2 °F 100% 30.16 in 1.8 mi Calm Calm - N/A   Overcast
7:55 AM 61.2 °F - 61.2 °F 100% 30.16 in 2.0 mi Calm Calm - N/A   Overcast
8:15 AM 61.5 °F - 61.2 °F 99% 30.16 in 5.0 mi Calm Calm - N/A   Overcast
8:35 AM 61.5 °F - 61.2 °F 99% 30.16 in 5.0 mi Calm Calm - N/A   Overcast
8:55 AM 62.2 °F - 61.5 °F 97% 30.16 in 7.0 mi Calm Calm - N/A   Overcast
9:15 AM 63.5 °F - 62.2 °F 96% 30.16 in 10.0 mi Calm Calm - N/A   Overcast
9:35 AM 65.5 °F - 63.0 °F 92% 30.17 in 10.0 mi Calm Calm - N/A   Overcast
9:55 AM 66.6 °F - 63.1 °F 89% 30.16 in 10.0 mi Calm Calm - N/A   Scattered Clouds
10:15 AM 68.7 °F - 63.9 °F 84% 30.16 in 10.0 mi Calm Calm - N/A   Clear
10:35 AM 70.2 °F - 64.9 °F 83% 30.15 in 10.0 mi Calm Calm - N/A   Clear
10:55 AM 73.2 °F - 65.7 °F 77% 30.14 in 10.0 mi Calm Calm - N/A   Clear
11:15 AM 77.2 °F - 66.9 °F 71% 30.14 in 10.0 mi Calm Calm - N/A   Clear
11:35 AM 79.9 °F - 66.2 °F 63% 30.13 in 10.0 mi SSE 3.5 mph - N/A   Clear
11:55 AM 80.1 °F 82.1 °F 65.8 °F 62% 30.12 in 10.0 mi Calm Calm - N/A   Clear
12:15 PM 80.6 °F 82.7 °F 65.8 °F 61% 30.11 in 10.0 mi Calm Calm - N/A   Scattered Clouds
12:35 PM 82.0 °F 83.9 °F 65.7 °F 57% 30.11 in 10.0 mi SSW 4.6 mph - N/A   Mostly Cloudy
12:55 PM 82.2 °F 83.8 °F 64.8 °F 55% 30.11 in 10.0 mi WNW 5.8 mph - N/A   Mostly Cloudy
1:15 PM 82.4 °F 84.2 °F 65.3 °F 56% 30.10 in 10.0 mi NW 5.8 mph - N/A   Scattered Clouds
1:35 PM 81.9 °F 82.6 °F 61.7 °F 50% 30.09 in 10.0 mi Calm Calm - N/A   Mostly Cloudy
1:55 PM 83.1 °F 84.0 °F 62.6 °F 50% 30.09 in 10.0 mi WNW 4.6 mph - N/A   Scattered Clouds
2:15 PM 84.0 °F 84.7 °F 62.4 °F 48% 30.08 in 10.0 mi SW 3.5 mph - N/A   Scattered Clouds
2:35 PM 82.4 °F 83.4 °F 62.8 °F 51% 30.08 in 10.0 mi Calm Calm - N/A   Clear
2:55 PM 83.5 °F 84.3 °F 62.4 °F 49% 30.07 in 10.0 mi Calm Calm - N/A   Clear
3:15 PM 83.7 °F 84.9 °F 63.7 °F 51% 30.06 in 10.0 mi SW 4.6 mph - N/A   Clear
3:35 PM 84.0 °F 85.4 °F 64.2 °F 51% 30.06 in 10.0 mi WNW 4.6 mph - N/A   Scattered Clouds
3:55 PM 83.5 °F 84.9 °F 64.2 °F 52% 30.06 in 10.0 mi West 4.6 mph - N/A   Scattered Clouds
4:15 PM 83.8 °F 85.1 °F 63.9 °F 51% 30.05 in 10.0 mi WNW 3.5 mph - N/A   Scattered Clouds
4:35 PM 84.0 °F 85.4 °F 64.2 °F 51% 30.05 in 10.0 mi Calm Calm - N/A   Scattered Clouds
4:55 PM 83.5 °F 84.7 °F 63.5 °F 51% 30.04 in 10.0 mi West 3.5 mph - N/A   Clear
5:15 PM 82.9 °F 84.6 °F 64.8 °F 54% 30.04 in 10.0 mi Calm Calm - N/A   Clear
5:35 PM 81.9 °F 84.4 °F 67.1 °F 61% 30.03 in 10.0 mi SSW 3.5 mph - N/A   Clear
5:55 PM 79.9 °F - 69.1 °F 69% 30.03 in 10.0 mi West 3.5 mph - N/A   Clear
6:15 PM 77.9 °F - 68.5 °F 73% 30.02 in 10.0 mi West 4.6 mph - N/A   Clear
6:35 PM 75.6 °F - 68.7 °F 79% 30.04 in 10.0 mi WNW 3.5 mph - N/A   Clear
6:55 PM 73.9 °F - 68.4 °F 83% 30.04 in 10.0 mi NW 3.5 mph - N/A   Clear
7:15 PM 72.7 °F - 68.0 °F 85% 30.05 in 10.0 mi WNW 3.5 mph - N/A   Clear
7:35 PM 72.3 °F - 68.0 °F 86% 30.05 in 10.0 mi WSW 4.6 mph - N/A   Clear
7:55 PM 71.2 °F - 67.5 °F 88% 30.06 in 10.0 mi Calm Calm - N/A   Clear
8:15 PM 70.9 °F - 67.6 °F 89% 30.06 in 10.0 mi Calm Calm - N/A   Clear
8:35 PM 70.3 °F - 67.5 °F 91% 30.06 in 10.0 mi Calm Calm - N/A   Clear
8:55 PM 69.4 °F - 66.6 °F 91% 30.06 in 10.0 mi Calm Calm - N/A   Clear
9:15 PM 69.1 °F - 66.6 °F 92% 30.06 in 10.0 mi Calm Calm - N/A   Clear
9:35 PM 68.2 °F - 66.4 °F 94% 30.06 in 10.0 mi Calm Calm - N/A   Clear
9:55 PM 67.5 °F - 66.2 °F 96% 30.06 in 10.0 mi Calm Calm - N/A   Clear
10:15 PM 67.1 °F - 66.0 °F 96% 30.06 in 10.0 mi Calm Calm - N/A   Clear
10:35 PM 67.1 °F - 65.8 °F 96% 30.06 in 10.0 mi Calm Calm - N/A   Clear
10:55 PM 66.4 °F - 65.3 °F 96% 30.07 in 10.0 mi Calm Calm - N/A   Clear
11:15 PM 66.4 °F - 65.5 °F 97% 30.07 in 10.0 mi Calm Calm - N/A   Clear
11:35 PM 66.2 °F - 65.3 °F 97% 30.07 in 10.0 mi Calm Calm - N/A   Clear
11:55 PM 65.3 °F - 64.6 °F 98% 30.06 in 10.0 mi Calm Calm - N/A   Scattered Clouds